Location: Brede
(50.9167°N, 0.6000°E)
Time: 01:59:17
(UTC+00:00)

Cosmos 1892 Rocket - Pass Details

Date: 08 August 2020
Orbit: 605 x 634 km, 82.5° (Epoch: 19 September)

Event Time Altitude Azimuth Distance (km) Brightness Sun altitude
Rises 01:53:15 0° 351° (N) 2,942 7.9 -18.8°
Reaches altitude 10° 01:55:32 10° 355° (N) 2,027 7.0 -18.7°
Maximum altitude 02:00:00 63° 77° (ENE) 706 4.0 -18.3°
Enters shadow 02:03:01 20° 155° (SSE) 1,466 5.2 -18.1°
